Flag for Argentina Weather past 2 weeks in Resistencia, Chaco, Argentina

Now
63 °F

Drizzle. Mostly cloudy.


Feels Like: 63 °F
Forecast: 52 / 67 °F
Wind: 10 mph from Southwest

Location: Resistencia Aero.

Current Time: Jul 23, 2014 at 4:35:42 AM

Latest Report: Jul 23, 2014 at 3:00 AM


Visibility: 2 mi

Pressure: 29.77 "Hg

Humidity: 100%

Dew point: 63 °F

Location of ResistenciaLocation

Historic Weather in Resistencia — Graph

°F

Resistencia temperature yesterday

Maximum temperature yesterday: 82 °F (at 1:00 PM)
Minimum temperature yesterday: 66 °F (at 12:00 AM)
Average temperature yesterday: 70 °F

Past Weeks' High & Low Weather Summary

 TemperatureHumidityPressure
High84 °F (Jul 14, 2:00 PM)100% (Jul 8, 3:00 AM)30.39 "Hg (Jul 8, 3:00 AM)
Low37 °F (Jul 8, 7:00 AM)40% (Jul 19, 2:00 PM)29.71 "Hg (Jul 22, 1:00 PM)
Average64 °F81%30.05 "Hg
* Reported Jul 8 3:00 AM — Jul 23 2:00 AM, Resistencia, Weather by CustomWeather, © 2014

Note: Actual official high and low records may vary slightly from our data, if they occured in-between our weather recording intervals... More about our weather records

Advertising

Resistencia weather history for previous 24 hours

 ConditionsComfort  
Time TempWeatherWind HumidityBarometerVisibility
2:00 AM
Jul 23
66 °FThunderstorms. Passing clouds.12 mph94%29.74 "HgN/A
1:00 AM66 °FThunderstorms. Passing clouds.13 mph100%29.77 "HgN/A
12:00 AM70 °FThunderstorms. Partly cloudy.9 mph94%29.77 "HgN/A
11:00 PM
Jul 22
72 °FMostly cloudy.5 mph94%29.77 "HgN/A
10:00 PM72 °FMostly cloudy.1 mph94%29.74 "Hg5 mi
9:00 PM72 °FMostly cloudy.No wind100%29.71 "Hg5 mi
8:00 PM72 °FOvercast.2 mph100%29.71 "Hg4 mi
1:00 PM82 °FScattered clouds.14 mph55%29.71 "HgN/A
12:00 PM81 °FSunny.12 mph58%29.74 "Hg10 mi
11:00 AM77 °FSunny.14 mph57%29.77 "Hg10 mi
10:00 AM70 °FSunny.12 mph73%29.77 "Hg10 mi
9:00 AM68 °FPassing clouds.13 mph73%29.77 "HgN/A
8:00 AM66 °FPassing clouds.9 mph73%29.77 "HgN/A
7:00 AM66 °FSunny.12 mph73%29.74 "Hg10 mi
6:00 AM66 °FClear.13 mph73%29.74 "Hg10 mi
5:00 AM68 °FClear.12 mph69%29.74 "Hg10 mi
4:00 AM68 °FPassing clouds.13 mph73%29.77 "HgN/A
Weather by CustomWeather, © 2014

See weather overviewHow to use our weather pages